This demonstration page uses our WeatherBlox Daily Observations layout. Learn more.

Left ArrowRight Arrow

41.86663, -103.66717

Hourly Observations for May 17, 2022

Temp ( °F °C ) Dew Point ( °F °C ) Humidity (%) Winds ( mph kmh ) Pressure ( in mb ) Visibility ( mi km ) Precip ( " mm )
12:53 am 00:53 Mostly Clear 60 15.6 43 6.1 53 53 WNW 9 15 29.76 1008 10 16 0.00 0.00
1:53 am 01:53 Clear 57 13.9 43 6.1 60 60 E 6 9 29.71 1006 10 16 0.00 0.00
2:53 am 02:53 Clear 54 12.2 43 6.1 67 67 WSW 5 7 29.72 1007 10 16 0.00 0.00
3:53 am 03:53 Clear 54 12.2 44 6.7 69 69 NNE 5 7 29.72 1007 10 16 0.00 0.00
4:53 am 04:53 Clear 51 10.6 43 6.1 74 74 Calm 29.74 1007 10 16 0.00 0.00
5:53 am 05:53 Sunny 50 10 44 6.7 80 80 NW 8 13 29.77 1008 10 16 0.00 0.00
6:53 am 06:53 Sunny 54 12.2 46 7.8 75 75 NW 9 15 29.77 1008 10 16 0.00 0.00
7:53 am 07:53 Sunny 60 15.6 48 8.9 65 65 WNW 9 15 29.77 1008 10 16 0.00 0.00
8:53 am 08:53 Sunny 66 18.9 49 9.4 54 54 WNW 10 17 29.78 1009 10 16 0.00 0.00
9:53 am 09:53 Sunny 74 23.3 51 10.6 45 45 NNW 9 15 29.78 1008 10 16 0.00 0.00
10:53 am 10:53 Sunny 77 25 48 8.9 36 36 NNW 8 13 29.78 1009 10 16 0.00 0.00
11:53 am 11:53 Sunny 78 25.6 49 9.4 36 36 N 12 19 29.78 1009 10 16 0.00 0.00
12:53 pm 12:53 Sunny 82 27.8 48 8.9 31 31 NNE 6 9 29.79 1009 10 16 0.00 0.00
1:53 pm 13:53 Sunny 80 26.7 51 10.6 37 37 NNW 13 20 29.80 1009 10 16 0.00 0.00
2:53 pm 14:53 Sunny 78 25.6 49 9.4 36 36 NNE 10 17 29.80 1009 10 16 0.00 0.00
3:53 pm 15:53 Sunny 79 26.1 47 8.3 32 32 Calm 29.80 1009 10 16 0.00 0.00
4:53 pm 16:53 Sunny 80 26.7 47 8.3 31 31 E 9 15 29.78 1008 10 16 0.00 0.00
5:11 pm 17:11 Mostly Cloudy with Nearby Thunderstorms 80 26.7 47 8.3 31 31 E 9 15 29.61 1003 10 16 0.00 0.00
5:35 pm 17:35 Mostly Cloudy with Thunderstorms 73 22.8 49 9.4 43 43 NNE 25 41 29.69 1006 8 13 0.00 0.00
5:51 pm 17:51 Partly Cloudy with Nearby Thunderstorms 64 18 48 9 56 56 NE 16 26 29.77 1008 10 16 0.00 0.00
5:53 pm 17:53 Mostly Cloudy with Nearby Thunderstorms 66 18.9 50 10 56 56 NE 17 28 29.85 1011 10 16 0.00 0.00
6:16 pm 18:16 Mostly Cloudy 71 21.7 49 9.4 46 46 NE 21 33 29.71 1006 10 16 0.00 0.00
6:53 pm 18:53 Sunny 72 22.2 49 9.4 44 44 NE 14 22 29.83 1010 10 16 0.00 0.00
7:53 pm 19:53 Cloudy 67 19.4 50 10 55 55 NNE 8 13 29.87 1011 10 16 0.00 0.00
8:53 pm 20:53 Clear 63 17.2 52 11.1 68 68 N 3 6 29.88 1012 10 16 0.00 0.00
9:35 pm 21:35 Mostly Cloudy with Nearby Thunderstorms 62 16.7 52 11.1 70 70 ENE 8 13 29.89 1012 10 16 0.00 0.00
9:50 pm 21:50 Mostly Cloudy with Light Rain 61 16 54 12 77 77 N 10 17 29.91 1013 10 16 0.00 0.00
9:53 pm 21:53 Mostly Cloudy with Light Rain 61 16.1 53 11.7 75 75 N 10 17 29.92 1013 10 16 0.00 0.00
10:53 pm 22:53 Partly Cloudy 58 14.4 52 11.1 81 81 S 7 11 29.91 1013 10 16 0.00 0.00
11:53 pm 23:53 Clear 59 15 51 10.6 75 75 SSW 3 6 29.89 1012 10 16 0.00 0.00

Powered by AerisWeather